Tracking 30074 objects as of 13-Jan-2025
HD Live streaming from Space Station
objects crossing your sky now

STARLINK-2589

Track STARLINK-2589 now!
10-day predictions
STARLINK-2589 is classified as:


NORAD ID: 48371
Int'l Code: 2021-038U
Perigee: 553.4 km
Apogee: 555.4 km
Inclination: 53.1 °
Period: 95.6 minutes
Semi major axis: 6925 km
RCS: Unknown
Launch date: May 4, 2021
Source: United States (US)
Launch site: AIR FORCE EASTERN TEST RANGE (AFETR)
Your satellite tracking list
Your tracking list is empty




NASA's NSSDC Master Catalog

Two Line Element Set (TLE):
1 48371U 21038U   25012.45875733 -.00004582  00000-0 -28911-3 0  9994
2 48371  53.0549  82.5966 0001458  84.5439 275.5717 15.06375437203671
Source of the keplerian elements: AFSPC